Location: Gleizolles
(44.4833°N, 6.7667°E)
Time: 13:51:23
(UTC+00:00)

A-11 Canister half - Pass Details

Date: 19 June 2024
Orbit: 1515 x 1684 km, 47.2° (Epoch: 24 July)

Event Time Altitude Azimuth Distance (km) Brightness Sun altitude
Rises 00:44:36 0° 294° (WNW) 4,833 11.7 -20.2°
Reaches altitude 10° 00:47:55 10° 289° (WNW) 3,820 11.1 -20.0°
Maximum altitude 00:56:52 44° 221° (SW) 2,042 9.2 -19.5°
Drops below altitude 10° 01:05:31 10° 153° (SSE) 3,694 10.6 -19.0°
Sets 01:08:41 0° 147° (SSE) 4,661 11.2 -18.7°
